Tracking 25734 objects as of 28-May-2022
HD Live streaming from Space Station
objects crossing your sky now

DELTA 1 R/B

Track DELTA 1 R/B now!
10-day predictions


NORAD ID: 2661
Int'l Code: 1967-006B
Perigee: 1,346.7 km
Apogee: 1,448.0 km
Inclination: 102.1 °
Period: 113.6 minutes
Semi major axis: 7768 km
RCS: 0.6811 m2 (medium)
Launch date: January 26, 1967
Source: United States (US)
Launch site: AIR FORCE WESTERN TEST RANGE (AFWTR)

Note: This is a ROCKET BODY
aabbcc
Your satellite tracking list
Your tracking list is empty




NASA's NSSDC Master Catalog

Two Line Element Set (TLE):
1 02661U 67006B   22147.92725569 -.00000040  00000-0  45694-4 0  9992
2 02661 102.0745 147.6774 0065204  75.1109 353.9732 12.67961967560414
Source of the keplerian elements: AFSPC